Regional Weather Roundup
Issued by NWS Sterling, VA

Home | Current Version | Previous Version | Text Only | Print | Product List | Glossary Off
Versions: 1 2 3 4 5 6 7 8 9 10 11 12 13 14 15 16 17 18 19 20 21 22 23 24 25 26 27 28 29 30 31 32 33 34 35 36 37 38 39 40 41 42 43 44 45 46 47 48 49 50

000
ASUS41 KLWX 010710
RWRLWX

REGIONAL WEATHER ROUNDUP
NATIONAL WEATHER SERVICE BALTIMORE MD/WASHINGTON DC
300 AM EDT WED OCT 01 2014

Note: "FAIR" indicates few or no clouds below 12,000 feet
with no significant weather and/or obstructions to visibility.
 TC=TEMPERATURE CELSIUS

 * =Non NWS site. Station does not report precipitation (e.g. rain,
    snow, etc.), thunder, or fog.

DCZ001-MDZ009-015-VAZ040>042-051-053>054-010800-
WASHINGTON METRO

CITY           SKY/WX    TMP DP  RH WIND       PRES   REMARKS
WASHINGTON NAT CLOUDY    68  63  83 NE9       29.96S
DULLES         CLOUDY    62  61  96 N3        29.96F
ANDREWS AFB    CLOUDY    64  63  94 NE7       29.95S
QUANTICO       PTCLDY    64  61  90 NW6       29.96S
COLLEGE PARK*  MOCLDY    64  64 100 CALM      29.96S
LEESBURG*      CLOUDY    63  63 100 NE3       29.97F FOG
MANASSAS*      CLOUDY    64  63  94 N3        29.95F
GAITHERSBURG*  CLOUDY    63  61  94 CALM      30.01S

$$

MDZ006>007-011-014-010800-
BALTIMORE METRO

CITY           SKY/WX    TMP DP  RH WIND       PRES   REMARKS
BWI AIRPORT    MOCLDY    63  61  93 NE3       29.96F
MD SCIENCE CTR   N/A     64  61  90 MISG      29.97F
MARTIN STATE   PTCLDY    63  63 100 CALM      29.98F
ANNAPOLIS      MOCLDY    66  61  84 VRB3      29.95F
FORT MEADE*    MOCLDY    63  61  94 CALM      29.98F

$$

MDZ012-015-019>023-010800-
MARYLAND EASTERN SHORE

CITY           SKY/WX    TMP DP  RH WIND       PRES   REMARKS
OCEAN CITY     CLEAR    N/A N/A N/A NW6       29.92F HAZE
SALISBURY      PTCLDY    63  59  87 CALM      29.93F
BAY BRIDGE AP*   N/A     63  61  94 NE6       29.96S
CAMBRIDGE*     MOCLDY    64  61  88 CALM      29.94F
EASTON*        MOCLDY    65  65 100 CALM      29.99S

$$

MDZ017>025-010800-
SOUTHERN MARYLAND

CITY           SKY/WX    TMP DP  RH WIND       PRES   REMARKS
PATUXENT RIVER MOCLDY    65  61  87 NE3       29.93F
ST INIGOES     MOCLDY    61  58  90 NE3       29.93S FOG
LEONARDTOWN*   PTCLDY    63  61  94 CALM      29.95F

$$

MDZ003>005-010800-
NORTH CENTRAL MARYLAND

CITY           SKY/WX    TMP DP  RH WIND       PRES   REMARKS
FREDERICK*     CLOUDY    63  63 100 NE3       30.00S
HAGERSTOWN APT CLOUDY    61  58  90 E6        29.96F
WESTMINSTER*   CLOUDY    61  59  94 CALM      29.98F

$$

MDZ501>502-010800-
WESTERN MARYLAND

CITY           SKY/WX    TMP DP  RH WIND       PRES   REMARKS
OAKLAND*       PTCLDY    52 N/A N/A SE9       30.00S
CUMBERLAND*    MOCLDY    59  59 100 CALM      30.01S

$$

VAZ025>031-010800-
SHENANDOAH VALLEY

CITY           SKY/WX    TMP DP  RH WIND       PRES   REMARKS
WINCHESTER*    LGT RAIN  63  61  94 CALM      29.96F
STAUNTON*      CLOUDY    62  57  85 CALM      29.98S

$$

WVZ021-048>050-054>055-010800-
EASTERN WEST VIRGINIA PANHANDLE

CITY           SKY/WX    TMP DP  RH WIND       PRES   REMARKS
MARTINSBURG    CLOUDY    62  58  86 NW5       29.98R FOG
PETERSBURG*    RAIN     N/A N/A N/A CALM      29.99S

$$

VAZ036>039-050-010800-
CENTRAL FOOTHILLS

CITY           SKY/WX    TMP DP  RH WIND       PRES   REMARKS
CHARLOTTESVILL CLOUDY    63  61  93 CALM      29.95F FOG
ORANGE*        MOCLDY    61  61 100 CALM      29.96F FOG

$$

VAZ055>057-010800-
NORTH AND CENTRAL PIEDMONT

CITY           SKY/WX    TMP DP  RH WIND       PRES   REMARKS
FREDERICKSBRG* PTCLDY    62  62 100 CALM      29.94S FOG
STAFFORD*      MOCLDY    60  60 100 NW6       29.99S FOG

$$

NCZ024-NYZ072-PAZ021-071-VAZ022-071-010800-
OTHER REGIONAL OBSERVATIONS

CITY           SKY/WX    TMP DP  RH WIND       PRES   REMARKS
NEW YORK CITY  CLOUDY    63  57  81 VRB3      30.01F
PHILADELPHIA   CLOUDY    65  58  78 NE9       29.98F
PITTSBURGH     CLOUDY    57  56  96 NE3       29.97S
ROANOKE        PTCLDY    59  55  87 CALM      29.98S
RICHMOND       PTCLDY    62  59  90 CALM      29.93F FOG
RALEIGH        PTCLDY    57  56  96 CALM      29.94S FOG

$$

ANZ530>537-010800-
MARINE OBSERVATIONS

STATION/POSITION TIME  TEMP    WIND        PRES
                       AIR SEA DIR/SP/G
                 (UTC) (F)     (DEG/KT/KT) (MB)
THOMAS PT LIGHT  0700   65 72   60/ 10/ 12 1015.1F
BALT KEY BRIDGE  0700   65      40/  6/  6 1014.5F
COVE POINT       0700   66      70/  7/  8 1013.7F
LEWISETTA        0700   67 72   90/  1/  2 1013.0F
SOLOMONS ISLAND  0700      73                N/A
PINEY POINT      0700           80/  4/  5   N/A

$$




USA.gov is the U.S. government's official web portal to all federal, state and local government web resources and services.